CW7054 Weather Reports


Display with metric or nautical units.
time (UTC)temp
F
wind
direction
speed
MPH
gust
MPH
rain 1hr
in
rain 24hr
in
rain mn
in
humidity
%
barometer
mb
20260508034548 48 265 0.0 0.0 0.00 0.20 0.20 82 1008.7
20260508033042 49 265 0.0 0.0 0.00 0.20 0.20 82 1008.8
20260508031551 49 265 0.0 0.0 0.00 0.20 0.20 81 1008.7
20260508030041 50 265 0.0 0.0 0.00 0.20 0.20 81 1008.6
20260508024540 50 265 0.0 1.0 0.00 0.20 0.20 80 1008.7
20260508023040 51 265 0.0 0.0 0.00 0.20 0.20 79 1008.6
20260508021541 51 265 0.0 1.0 0.00 0.20 0.20 78 1008.6
20260508020039 52 265 0.0 3.0 0.00 0.20 0.20 78 1008.9
20260508014539 52 265 0.0 3.0 0.00 0.20 0.20 77 1008.8
20260508013041 53 265 0.0 7.0 0.00 0.20 0.20 77 1008.5
20260508011544 53 268 1.0 9.0 0.00 0.20 0.20 77 1008.5
20260508010040 53 252 0.0 3.0 0.00 0.20 0.20 78 1008.3
20260508004540 53 252 0.0 3.0 0.00 0.20 0.20 79 1008.3
20260508003036 54 251 1.0 7.0 0.00 0.20 0.20 78 1008.0
20260508001538 54 205 0.0 3.0 0.00 0.20 0.20 77 1007.8
20260508000044 54 207 0.0 3.0 0.00 0.20 0.20 76 1007.7
20260507234543 54 214 0.0 4.0 0.00 0.20 0.20 76 1007.7
20260507233036 55 228 0.0 4.0 0.00 0.20 0.20 75 1007.3
20260507231542 56 164 0.0 6.0 0.00 0.20 0.20 75 1007.0
20260507230033 57 222 0.0 4.0 0.00 0.20 0.20 72 1007.2
20260507224534 58 175 0.0 5.0 0.00 0.20 0.20 71 1007.1
20260507223033 58 169 0.0 7.0 0.00 0.20 0.20 69 1006.9
20260507221532 60 242 1.0 5.0 0.00 0.20 0.20 67 1006.9
20260507220034 62 182 1.0 6.0 0.00 0.20 0.20 61 1006.8
20260507214531 62 255 1.0 7.0 0.00 0.23 0.20 41 1006.7
20260507213038 63 278 3.0 8.0 0.00 0.23 0.20 38 1006.7
20260507211542 63 261 2.0 12.0 0.00 0.23 0.20 39 1006.6
20260507210030 64 25 1.0 10.0 0.00 0.23 0.20 36 1006.6
20260507204529 64 242 3.0 10.0 0.00 0.27 0.20 41 1006.8
20260507203029 64 257 3.0 10.0 0.00 0.27 0.20 35 1006.6
20260507201528 63 339 2.0 11.0 0.00 0.27 0.20 35 1006.7
20260507200027 64 262 4.0 11.0 0.00 0.27 0.20 37 1006.6
20260507194526 63 80 0.0 6.0 0.00 0.27 0.20 39 1006.8
20260507193024 63 253 1.0 7.0 0.00 0.27 0.20 42 1006.9
20260507191527 62 29 0.0 8.0 0.00 0.27 0.20 40 1006.8
20260507190020 62 57 3.0 11.0 0.00 0.27 0.20 43 1007.0
20260507184518 62 5 1.0 8.0 0.00 0.28 0.20 44 1007.5
20260507183019 62 38 1.0 8.0 0.00 0.28 0.20 44 1007.7
20260507181517 61 295 3.0 9.0 0.00 0.28 0.20 43 1007.9
20260507180014 61 259 1.0 10.0 0.00 0.28 0.20 46 1007.9
20260507174523 60 257 4.0 13.0 0.00 0.28 0.20 50 1008.2
20260507173016 60 298 2.0 12.0 0.00 0.28 0.20 44 1008.2
20260507171508 59 67 1.0 8.0 0.00 0.28 0.20 47 1008.3
20260507170007 59 350 4.0 11.0 0.00 0.28 0.20 48 1008.5
20260507164506 58 355 3.0 8.0 0.00 0.28 0.20 51 1008.7
20260507163004 58 333 3.0 6.0 0.00 0.28 0.20 51 1009.0
20260507161502 58 313 0.0 12.0 0.00 0.28 0.20 58 1009.0
20260507160118 57 57 4.0 13.0 0.00 0.28 0.20 61 1009.1
20260507154558 57 319 1.0 11.0 0.00 0.28 0.20 67 1009.3
20260507153056 56 327 2.0 8.0 0.00 0.28 0.20 67 1009.5
20260507151558 55 252 3.0 9.0 0.01 0.28 0.20 71 1009.7
20260507150153 56 351 2.0 7.0 0.01 0.28 0.20 72 1009.7
20260507144553 55 333 1.0 8.0 0.01 0.28 0.20 73 1009.4
20260507143058 55 44 3.0 10.0 0.01 0.28 0.20 73 1009.5
20260507141649 54 338 3.0 9.0 0.01 0.27 0.19 78 1009.6
20260507134547 52 340 2.0 13.0 0.01 0.27 0.19 83 1009.2
20260507133046 51 355 3.0 9.0 0.02 0.27 0.19 87 1009.7
20260507131609 51 342 1.0 5.0 0.01 0.26 0.18 91 1009.9
20260507130042 50 360 0.0 4.0 0.02 0.26 0.18 93 1009.7
20260507124551 50 360 2.0 6.0 0.02 0.26 0.18 93 1009.6
20260507123044 50 350 1.0 8.0 0.02 0.25 0.17 93 1009.4
20260507121541 49 317 0.0 8.0 0.02 0.25 0.17 93 1009.4
20260507120041 49 21 0.0 3.0 0.02 0.24 0.16 93 1009.3
20260507114537 49 22 0.0 8.0 0.02 0.24 0.16 93 1008.8
20260507113101 49 11 0.0 9.0 0.02 0.23 0.15 93 1008.9
20260507111535 49 19 0.0 3.0 0.02 0.23 0.15 93 1008.8
20260507110038 49 13 1.0 6.0 0.02 0.22 0.14 93 1008.9
20260507104533 49 47 1.0 4.0 0.03 0.22 0.14 93 1008.6
20260507103032 49 5 1.0 9.0 0.03 0.21 0.13 93 1008.6
20260507101530 49 40 2.0 6.0 0.03 0.21 0.13 93 1008.0
20260507100041 49 28 0.0 5.0 0.03 0.20 0.12 93 1008.0
20260507094526 49 21 1.0 5.0 0.03 0.19 0.11 93 1008.0
20260507093028 50 21 0.0 5.0 0.03 0.18 0.10 93 1008.1
20260507091522 50 292 3.0 8.0 0.04 0.17 0.09 93 1007.4
20260507090021 50 27 1.0 6.0 0.05 0.17 0.09 93 1007.5
20260507084539 50 5 2.0 7.0 0.05 0.16 0.08 93 1007.5
20260507083023 51 5 3.0 5.0 0.04 0.14 0.06 93 1007.7
20260507081516 51 19 2.0 9.0 0.04 0.13 0.05 93 1007.8
20260507080016 52 344 1.0 5.0 0.03 0.12 0.04 92 1007.3
20260507074513 52 5 2.0 10.0 0.02 0.11 0.03 92 1007.0
20260507073010 53 299 3.0 11.0 0.00 0.09 0.01 92 1006.5
20260507071512 54 335 2.0 6.0 0.00 0.09 0.01 93 1007.0
20260507070013 54 11 1.0 5.0 0.01 0.09 0.01 94 1006.7
20260507064504 55 317 1.0 5.0 0.01 0.09 0.01 94 1007.0
20260507063002 56 5 1.0 5.0 0.01 0.09 0.01 94 1006.5
20260507061502 56 355 2.0 4.0 0.01 0.09 0.01 95 1006.6
20260507060100 55 225 0.0 0.0 0.00 0.08 0.00 94 1006.2
20260507054558 55 225 0.0 0.0 0.00 0.08 0.00 94 1006.2
20260507053058 56 225 0.0 1.0 0.00 0.08 0.00 94 1006.5
20260507051603 55 225 0.0 1.0 0.00 0.08 0.00 94 1006.5
20260507050106 55 224 0.0 0.0 0.00 0.08 0.00 94 1006.9
20260507044556 55 224 0.0 4.0 0.00 0.08 0.00 94 1007.2
20260507043053 55 223 0.0 4.0 0.00 0.08 0.00 94 1007.5
20260507041548 55 219 0.0 5.0 0.00 0.08 0.00 94 1007.1
20260507040048 55 203 0.0 3.0 0.00 0.08 0.00 94 1006.9